Weather in Tawau

Malaysia     4°15′01″N   117°54′04″E
В апреле 2022 года жителям России запретили посещать сайт meteo.paraplan.net по решению Генеральной прокуратуры. Аудитория сайта уменьшилась в 10 раз. Владельцы сайта не видят смысла в поддержке погодного сервера в таких условиях. Сайт будет закрыт в октябре.
temp.,
°C
wind,
m/s
gust,
m/s
humid.,
%
clouds,
%
prec.,
mm/h
press.,
hPa
HPBL,
m
3 october, mon
mon323:00+25nne2388100 2.5 100997
02:00+25n2288100 3.9 100783
05:00+25nw1186100 0.3 100786
08:00+27wnw228099 0.6 1009295
11:00+29s2369100 0.6 1009819
14:00+29se33658 0.7 1006743
17:00+28ese237114 0.1 1007545
20:00+26e2378100 0.1 1009402
4 october, tue
tue423:00+26ene1384100 2.6 1010396
02:00+24nnw2291100 6.2 100979
05:00+24nnw2292100 1.3 100989
08:00+26nw118699 1.3 1011165
11:00+29se1269100 0.8 1010657
14:00+29se3466100 0.9 1008765
17:00+28e457299 0.2 1007548
20:00+26ene358192 0.2 1010339
5 october, wed
wed523:00+25nne238686 0.3 1011189
02:00+24nnw229086 2.5 100881
05:00+24n1191100 5.0 100958
08:00+26nw0186100 8.9 101153
11:00+26e2387100 4.0 1011189
14:00+26sw1182100 4.6 1009463
17:00+26wnw1280100 0.0 1008320
20:00+25nnw118676 0.0 1010138
6 october, thu
thu623:00+25n118797 0.8 101189
02:00+24nw228593 1.3 1009109
05:00+25wsw1185100 0.8 1009105
08:00+25e1289100 3.3 1012160
11:00+25ne0186100 2.1 1011291
14:00+25ese0187100 2.9 1009324
17:00+25w1189100 1.4 1009221
20:00+24wnw2492100 1.9 1011193
7 october, fri
fri723:00+24wnw2391100 0.0 1011161
02:00+23nw339299 0.0 1009146
05:00+23nnw1190100 0.0 1009105
08:00+25nw1184100 0.1 1011237
11:00+28se127486 0.4 1011641
14:00+29se236942 1.1 1008881
17:00+28ese237610 0.3 1007482
20:00+26ene348032 0.4 1010319